Temp
87 86 86 87 86 86 85 84 85 85 85 84 83 84 83 83 82 81 81 80 80 79 79 80 80 80 79 79 79 79 80 80 79 79 79 79 79 79 78 77 77 77 77 76 76 76 77 78 77 77 77 77 76 75 74 73 73 73 73 72 72 71 71
86 86 86 87 86 86 86 85 85 86 85 85 84 84 84 83 82 81 81 80 80 80 80 80 80 80 80 80 80 79 79 79 80 80 79 79 79 79 79 78 77 77 77 77 77 77 77 77 78 77 77 77 76 75 74 73 73 73 72 72 71 70 71
86 86 86 86 86 86 85 86 85 86 86 86 85 84 84 83 83 82 81 80 80 80 80 80 80 80 80 80 79 79 79 80 79 79 79 79 79 79 79 79 78 78 78 78 78 77 78 77 78 77 77 76 76 75 75 74 73 73 73 72 72 71 70
86 86 86 86 86 86 87 87 86 86 87 87 86 85 84 83 84 83 82 82 80 80 79 80 80 80 80 80 79 79 79 79 80 80 80 80 79 79 79 78 78 78 77 77 78 78 78 78 77 77 78 76 76 75 75 75 74 73 73 72 71 71 71
86 87 87 86 86 86 86 86 86 86 87 88 87 85 85 85 84 83 83 83 82 81 81 81 81 81 81 81 80 80 80 80 80 80 80 80 80 79 79 79 78 78 78 78 78 78 77 77 77 77 77 76 75 75 75 75 74 73 72 72 71 71 71
86 85 85 86 87 87 86 87 88 87 87 87 86 85 85 85 85 84 84 82 82 82 82 81 81 81 80 81 81 80 80 80 80 80 80 80 80 79 79 79 79 78 78 78 79 78 78 77 77 77 77 76 76 75 75 75 74 73 72 71 71 71 71
87 86 86 86 87 87 87 87 88 88 88 88 87 86 86 86 85 85 85 83 83 81 81 81 81 81 81 81 80 80 79 80 80 80 80 80 80 80 79 79 79 79 79 79 78 78 78 77 77 77 77 76 75 75 74 74 74 73 72 71 71 71 71
88 87 87 88 88 89 88 87 87 88 88 87 87 86 86 86 86 85 84 84 83 83 82 82 81 81 81 81 81 80 80 80 80 80 80 80 80 80 80 80 79 79 79 79 79 79 78 78 78 77 77 76 75 75 75 74 74 74 73 72 71 70 71
88 88 88 89 90 90 89 87 87 87 86 85 85 85 85 85 85 85 85 84 84 83 82 83 82 82 81 81 80 80 80 80 80 80 80 80 80 80 80 80 80 80 79 79 79 79 79 78 78 77 77 76 75 74 74 74 74 74 73 72 72 71 71
87 86 87 90 91 91 90 88 86 85 84 84 83 83 84 84 85 85 85 85 84 83 83 83 83 83 82 81 80 81 80 80 80 80 80 80 80 80 81 81 80 80 80 80 80 79 79 79 78 77 76 76 75 75 74 74 74 74 73 73 72 72 71
87 86 87 88 88 88 87 85 82 81 83 83 83 83 83 84 84 85 85 85 85 84 84 84 84 83 82 81 81 80 80 80 80 80 80 80 81 81 81 81 81 81 80 80 79 79 79 78 78 77 76 76 75 75 74 74 74 73 73 73 73 72 72
85 85 85 86 86 85 83 83 82 81 82 82 83 83 83 83 84 85 85 85 86 85 84 84 84 83 82 82 81 80 79 80 80 80 80 80 81 81 81 82 81 81 81 80 80 79 79 78 78 78 76 76 76 75 75 74 74 74 73 73 73 72 71
85 84 84 84 83 83 81 80 81 82 82 83 84 84 84 84 84 85 84 84 86 86 85 84 84 83 82 82 81 80 79 80 80 80 81 80 81 81 82 82 82 82 81 81 81 80 79 79 78 78 77 76 76 76 75 74 74 73 73 73 72 72 71
83 83 83 83 82 81 79 80 80 81 81 83 83 84 84 84 85 84 84 84 86 86 85 85 84 83 82 81 81 80 80 80 81 81 81 81 81 81 81 82 81 81 81 81 80 80 80 79 78 78 77 77 76 76 75 74 73 73 73 72 72 72 71
83 83 81 81 81 80 80 80 80 81 82 82 83 83 83 83 84 84 84 85 85 86 85 85 83 82 82 81 80 80 80 80 81 81 81 81 81 81 81 81 81 81 81 80 80 81 81 80 79 78 77 77 76 75 75 74 73 73 73 72 72 72 72
84 84 83 83 82 82 82 82 81 81 81 81 82 82 83 83 83 84 84 84 85 85 86 85 83 82 82 81 81 81 81 81 81 81 81 80 80 80 81 81 81 81 80 80 80 80 80 80 79 79 77 76 76 75 75 74 74 72 68 70 74 72 73
80 82 82 83 82 82 82 82 81 80 80 80 81 82 83 82 83 84 85 84 85 85 86 85 83 82 82 81 81 81 81 81 80 80 80 80 80 80 80 80 81 80 80 80 80 80 79 79 79 79 78 77 76 75 75 75 74 66 65 67 69 73 73
79 81 83 83 82 81 80 80 79 79 80 80 82 82 83 82 83 83 84 84 85 86 86 85 84 82 82 82 82 81 81 81 80 80 80 80 80 80 80 80 80 80 80 80 79 79 80 79 78 78 78 77 77 76 75 75 69 63 65 66 67 69 74
78 78 79 77 77 78 80 81 80 79 81 82 82 83 84 84 84 83 84 84 85 86 85 84 84 83 82 82 82 81 81 81 80 80 80 80 80 80 80 80 79 79 79 79 80 79 79 78 78 78 78 77 76 76 76 76 67 63 64 66 66 66 71
80 81 82 82 81 81 81 81 82 82 82 82 83 85 86 85 85 85 85 85 85 84 84 84 83 83 82 82 82 82 81 81 80 80 80 80 80 80 80 79 79 79 80 80 79 79 79 79 78 78 77 77 76 76 76 76 65 62 63 64 64 65 68
79 80 82 82 83 84 84 83 84 83 83 84 85 85 85 85 86 86 85 84 83 84 84 84 83 82 82 82 82 82 81 81 80 80 80 80 80 79 79 79 79 79 80 80 79 79 78 79 78 78 77 77 77 76 75 77 62 61 62 62 62 64 66
77 80 82 84 85 84 83 84 84 85 85 86 85 85 85 85 86 86 84 84 84 83 84 83 83 82 82 82 82 82 82 81 80 80 80 79 79 79 79 79 79 79 79 79 79 79 79 79 79 78 77 77 76 76 74 74 60 61 61 61 61 63 68
76 76 79 82 83 81 81 84 85 86 86 85 85 85 85 87 87 85 84 83 83 83 83 83 82 82 82 82 82 82 82 82 81 80 80 79 79 79 79 79 79 79 79 78 78 78 78 78 78 78 77 76 76 75 74 73 61 60 60 60 60 62 68
81 79 77 76 78 84 85 83 83 83 83 84 83 84 85 86 85 84 83 82 82 82 82 82 82 83 82 82 83 83 83 82 82 80 80 79 79 79 79 80 80 79 78 78 78 77 78 78 77 76 76 76 75 75 74 73 64 58 59 59 59 63 69
76 77 77 76 77 80 81 82 84 86 83 81 81 82 82 82 83 83 82 82 82 82 82 82 83 83 83 83 84 84 83 83 82 81 80 80 80 80 80 79 79 79 78 79 78 77 76 75 75 73 73 75 76 73 74 73 66 57 59 58 57 64 70
70 72 74 77 76 76 78 79 78 79 81 81 82 83 82 81 82 82 82 82 83 82 82 83 84 85 85 85 84 84 83 83 82 81 81 80 80 80 80 80 78 77 77 77 77 74 73 73 73 72 72 73 74 74 74 71 67 60 56 55 55 60 71
70 71 72 73 72 74 73 74 78 80 82 83 84 84 82 82 82 82 82 82 81 81 83 85 85 85 85 84 84 84 83 83 82 82 82 82 81 80 79 78 78 77 76 75 73 73 72 72 72 71 70 71 71 71 70 71 67 61 54 54 55 58 64
68 69 71 71 71 71 73 73 71 73 76 77 78 79 79 80 82 82 82 81 81 83 85 85 85 85 84 83 83 84 83 83 83 83 82 81 80 78 77 78 78 77 75 73 72 71 70 70 69 69 68 68 68 69 69 68 65 63 54 54 54 56 60
65 66 66 68 69 70 71 69 69 70 71 75 79 80 80 79 77 79 80 81 82 85 86 85 84 84 83 82 83 82 82 82 81 81 81 80 79 78 76 76 75 74 73 72 71 70 69 68 68 68 67 67 66 66 66 66 65 60 60 54 53 54 56
65 65 66 68 68 68 70 68 68 70 71 71 71 74 79 80 79 78 76 78 83 84 84 83 83 83 82 81 82 82 82 81 81 81 80 79 78 77 75 74 73 72 71 71 70 68 67 66 68 68 67 66 64 64 64 64 63 60 59 58 53 52 54
65 65 66 65 66 67 68 68 67 68 68 69 70 70 71 77 79 77 78 80 79 78 80 82 82 81 81 81 81 80 81 80 80 79 79 78 77 75 73 72 71 70 69 70 68 68 67 67 68 67 67 66 64 63 63 63 63 61 60 58 54 53 54
65 66 66 66 65 66 67 68 68 67 67 67 68 69 69 71 74 78 79 80 79 80 80 80 79 80 80 80 80 79 80 79 78 77 77 76 76 75 73 72 70 69 69 69 69 69 68 67 68 68 67 65 64 63 64 63 63 62 60 60 58 57 55
64 64 64 64 65 66 65 66 66 66 66 66 67 68 70 70 69 69 70 71 73 75 76 76 77 77 78 78 78 78 78 77 76 75 75 74 73 73 72 71 70 69 68 69 69 68 68 68 67 67 65 64 64 64 64 64 63 63 61 60 58 59 58
63 63 63 64 65 66 65 65 65 66 66 66 68 69 69 68 68 69 70 70 71 71 71 70 70 73 76 77 77 77 76 75 75 74 72 72 71 70 70 70 71 70 68 68 68 67 67 67 66 65 64 64 64 64 64 63 63 62 61 60 60 60 59
63 63 63 63 64 65 65 66 66 66 66 66 68 69 68 68 68 69 68 69 70 70 68 67 67 68 71 73 74 73 72 72 71 70 70 68 64 63 65 69 71 68 66 65 68 70 68 67 66 65 66 66 65 64 63 64 63 64 59 63 57 60 59
64 64 65 65 65 64 66 67 66 66 66 66 67 68 68 68 68 69 70 69 69 69 68 67 67 68 68 68 68 67 68 68 67 66 64 62 60 59 56 50 47 56 67 62 55 56 60 59 66 67 67 66 66 67 67 65 67 58 53 50 50 50 53
63 64 65 65 65 65 64 65 66 66 65 65 66 67 68 68 69 69 69 69 69 70 69 68 67 67 67 67 66 66 66 66 65 65 64 63 61 60 58 57 54 44 43 49 52 50 49 52 53 57 60 66 65 57 54 59 53 48 47 47 47 47 48
65 64 64 66 66 66 65 64 65 65 64 64 65 66 67 68 68 68 69 69 69 69 69 69 67 66 65 66 66 66 65 65 65 64 63 62 62 62 61 60 57 55 45 42 45 45 44 48 51 52 54 57 60 59 56 51 47 47 46 46 46 46 46
MSLP
1001.04 1001.48 1001.60 1001.60 1002.04 1002.24 1002.60 1002.76 1002.84 1003.12 1003.36 1003.76 1004.04 1004.36 1004.84 1005.24 1005.56 1006.00 1006.48 1006.84 1007.28 1007.80 1008.00 1008.24 1008.56 1008.92 1009.36 1009.76 1010.08 1010.32 1010.52 1010.84 1011.08 1011.40 1011.64 1011.80 1011.88 1012.20 1012.56 1012.80 1013.08 1013.28 1013.40 1013.76 1013.96 1014.04 1014.08 1014.16 1014.44 1014.68 1014.88 1015.04 1015.28 1015.40 1015.52 1015.72 1015.92 1016.08 1016.16 1016.32 1016.56 1016.76 1016.92
1001.16 1001.12 1001.16 1001.12 1001.44 1001.68 1001.68 1001.80 1002.08 1002.32 1002.72 1003.04 1003.44 1003.84 1004.20 1004.60 1005.00 1005.52 1005.80 1006.16 1006.56 1007.00 1007.48 1007.88 1008.24 1008.52 1008.80 1009.20 1009.60 1009.96 1010.32 1010.48 1010.64 1010.88 1011.20 1011.48 1011.60 1011.76 1011.88 1012.24 1012.56 1012.84 1012.96 1013.12 1013.36 1013.52 1013.76 1013.96 1014.12 1014.44 1014.64 1014.76 1014.92 1015.08 1015.24 1015.44 1015.64 1015.88 1016.04 1016.24 1016.48 1016.72 1016.80
1000.48 1000.40 1000.48 1000.60 1000.84 1001.04 1001.12 1001.28 1001.48 1001.64 1001.96 1002.40 1002.88 1003.40 1003.60 1003.80 1004.04 1004.52 1005.20 1005.88 1006.40 1006.76 1007.08 1007.40 1007.68 1008.04 1008.36 1008.72 1009.28 1009.64 1009.88 1010.12 1010.40 1010.64 1010.96 1011.16 1011.40 1011.52 1011.64 1011.84 1012.16 1012.40 1012.48 1012.64 1012.92 1013.24 1013.36 1013.72 1013.84 1014.04 1014.24 1014.52 1014.68 1014.84 1014.96 1015.24 1015.48 1015.60 1015.72 1016.00 1016.24 1016.48 1016.64
999.88 999.88 999.72 999.64 999.72 999.88 1000.12 1000.36 1000.72 1001.00 1001.16 1001.52 1002.00 1002.28 1002.68 1003.08 1003.32 1003.88 1004.44 1005.00 1005.80 1006.40 1006.88 1007.08 1007.36 1007.72 1008.00 1008.44 1008.84 1009.24 1009.56 1009.72 1009.84 1010.12 1010.36 1010.64 1011.04 1011.16 1011.48 1011.72 1011.92 1012.04 1012.36 1012.48 1012.56 1012.80 1013.04 1013.32 1013.64 1013.80 1013.92 1014.20 1014.40 1014.56 1014.76 1014.96 1015.20 1015.36 1015.48 1015.76 1016.04 1016.12 1016.28
998.88 998.80 999.20 999.60 999.76 999.88 999.96 1000.12 1000.36 1000.52 1000.72 1000.76 1001.00 1001.28 1001.68 1002.20 1002.92 1003.60 1004.12 1004.44 1004.84 1005.44 1005.72 1006.20 1006.64 1007.08 1007.44 1007.76 1008.20 1008.60 1008.96 1009.32 1009.56 1009.72 1010.00 1010.24 1010.56 1010.88 1011.20 1011.44 1011.60 1011.76 1011.88 1012.12 1012.28 1012.56 1012.84 1013.12 1013.40 1013.56 1013.72 1013.88 1014.16 1014.40 1014.56 1014.68 1014.92 1015.12 1015.36 1015.52 1015.80 1015.96 1016.12
998.72 998.88 999.00 999.16 999.24 999.32 999.36 999.40 999.44 999.72 1000.04 1000.52 1000.88 1001.36 1001.68 1002.16 1002.60 1003.16 1003.48 1004.04 1004.52 1004.88 1005.28 1005.76 1006.24 1006.60 1007.16 1007.36 1007.76 1008.16 1008.52 1008.84 1009.04 1009.32 1009.64 1009.96 1010.32 1010.68 1010.84 1010.96 1011.20 1011.40 1011.68 1011.72 1011.88 1012.12 1012.36 1012.68 1012.92 1013.16 1013.44 1013.64 1013.88 1014.16 1014.28 1014.48 1014.64 1014.84 1015.04 1015.28 1015.44 1015.64 1015.92
997.92 998.12 998.40 998.48 998.52 998.68 998.76 998.84 999.00 999.12 999.24 999.52 999.92 1000.48 1001.16 1001.76 1002.24 1002.48 1003.00 1003.64 1004.00 1004.64 1005.12 1005.56 1005.72 1006.12 1006.56 1006.96 1007.36 1007.76 1008.20 1008.52 1008.80 1009.12 1009.36 1009.72 1009.92 1010.24 1010.40 1010.56 1010.72 1010.92 1010.96 1011.32 1011.60 1011.68 1012.08 1012.32 1012.48 1012.72 1013.00 1013.32 1013.60 1013.80 1014.00 1014.20 1014.44 1014.56 1014.76 1015.00 1015.20 1015.36 1015.52
996.84 997.48 997.36 997.44 997.64 997.76 998.04 998.32 998.48 998.64 998.88 999.28 1000.08 1000.76 1001.16 1001.28 1001.72 1002.36 1002.80 1002.96 1003.44 1004.04 1004.44 1004.84 1005.28 1005.52 1006.00 1006.44 1006.84 1007.28 1007.68 1008.04 1008.28 1008.68 1009.04 1009.40 1009.64 1009.88 1010.04 1010.20 1010.32 1010.40 1010.72 1011.00 1011.00 1011.24 1011.56 1011.88 1012.08 1012.32 1012.64 1013.00 1013.28 1013.48 1013.64 1013.80 1014.00 1014.20 1014.40 1014.72 1015.00 1015.20 1015.28
996.00 996.12 996.60 996.84 996.88 996.92 997.16 997.60 997.88 998.20 998.68 999.24 999.60 1000.00 1000.36 1000.88 1001.36 1001.68 1002.00 1002.44 1002.92 1003.32 1003.64 1003.84 1004.28 1004.76 1005.32 1005.92 1006.44 1006.80 1007.12 1007.48 1007.92 1008.28 1008.68 1009.08 1009.28 1009.52 1009.60 1009.72 1009.88 1009.96 1010.28 1010.48 1010.68 1010.80 1011.04 1011.36 1011.68 1012.00 1012.28 1012.64 1012.92 1013.16 1013.36 1013.48 1013.68 1013.84 1014.08 1014.32 1014.64 1014.92 1015.12
996.04 996.24 996.08 995.92 995.96 996.12 996.40 996.80 997.24 998.00 998.76 999.16 999.56 1000.04 1000.36 1000.56 1000.80 1001.16 1001.64 1002.00 1002.40 1002.80 1003.00 1003.44 1003.80 1004.28 1004.84 1005.36 1005.84 1006.16 1006.60 1007.04 1007.36 1007.88 1008.24 1008.64 1008.72 1008.96 1009.08 1009.24 1009.44 1009.52 1009.80 1009.96 1010.20 1010.56 1010.64 1010.88 1011.24 1011.64 1011.96 1012.28 1012.60 1012.84 1013.00 1013.20 1013.40 1013.56 1013.72 1013.96 1014.24 1014.56 1014.80
995.40 995.56 995.76 995.92 996.08 996.16 996.44 997.24 998.00 998.40 998.48 998.72 998.96 999.32 999.68 1000.04 1000.44 1000.84 1001.20 1001.52 1001.92 1002.16 1002.52 1002.96 1003.32 1003.84 1004.32 1004.80 1005.40 1005.76 1006.16 1006.52 1006.84 1007.32 1007.68 1007.96 1008.12 1008.40 1008.60 1008.80 1009.00 1009.12 1009.28 1009.56 1009.88 1010.04 1010.36 1010.64 1010.84 1011.28 1011.60 1011.92 1012.12 1012.44 1012.68 1012.80 1013.04 1013.36 1013.56 1013.64 1013.80 1014.12 1014.48
995.40 995.60 995.68 995.64 995.88 996.32 996.92 997.08 997.32 997.76 998.08 998.28 998.48 998.80 999.20 999.56 999.84 1000.12 1000.48 1000.84 1001.08 1001.96 1002.48 1002.72 1002.84 1003.28 1003.88 1004.32 1004.88 1005.28 1005.64 1005.92 1006.28 1006.60 1006.92 1007.20 1007.52 1007.80 1008.08 1008.28 1008.52 1008.64 1008.80 1009.00 1009.40 1009.68 1009.92 1010.28 1010.52 1010.72 1011.08 1011.32 1011.60 1011.88 1012.16 1012.44 1012.72 1012.96 1013.12 1013.36 1013.64 1013.96 1014.24
995.16 995.20 995.24 995.60 995.84 996.16 996.52 997.00 997.24 997.28 997.48 997.72 997.96 998.24 998.56 998.92 999.28 999.60 1000.00 1000.44 1000.76 1001.12 1001.80 1002.24 1002.64 1003.00 1003.48 1003.88 1004.32 1004.76 1005.00 1005.24 1005.48 1005.72 1006.12 1006.52 1006.84 1007.16 1007.56 1007.84 1007.96 1008.16 1008.36 1008.48 1008.84 1009.28 1009.64 1009.84 1010.04 1010.16 1010.52 1010.88 1011.20 1011.52 1011.80 1012.12 1012.44 1012.72 1012.96 1013.20 1013.48 1013.76 1014.04
995.24 995.20 995.24 995.32 995.68 996.20 996.60 996.76 996.92 997.08 997.24 997.44 997.64 997.80 998.12 998.32 998.60 999.04 999.52 1000.04 1000.24 1000.64 1001.24 1001.76 1002.24 1002.68 1003.00 1003.40 1003.80 1004.08 1004.28 1004.44 1004.64 1005.00 1005.36 1005.76 1006.20 1006.68 1006.96 1007.24 1007.52 1007.64 1007.80 1008.16 1008.56 1008.84 1009.04 1009.32 1009.56 1009.80 1010.16 1010.48 1010.80 1011.04 1011.40 1011.84 1012.20 1012.48 1012.72 1013.00 1013.24 1013.56 1013.80
995.16 995.48 995.56 995.68 995.72 995.84 996.08 996.48 996.56 996.60 996.76 996.92 997.12 997.68 998.00 998.28 998.64 998.84 999.16 999.44 999.84 1000.20 1000.60 1000.92 1001.72 1002.24 1002.60 1002.92 1003.20 1003.28 1003.48 1003.84 1004.16 1004.40 1004.80 1005.24 1005.76 1006.20 1006.52 1006.72 1006.96 1007.20 1007.52 1007.80 1008.04 1008.24 1008.44 1008.72 1009.16 1009.64 1010.00 1010.20 1010.52 1010.84 1011.12 1011.52 1011.80 1012.00 1012.36 1012.76 1013.08 1013.20 1013.48
994.48 994.76 994.96 995.12 995.16 995.24 995.40 995.48 995.76 996.00 996.28 996.72 997.12 997.44 997.76 998.08 998.28 998.48 998.80 999.08 999.20 999.52 999.76 1000.40 1001.12 1001.64 1002.04 1002.32 1002.36 1002.60 1003.00 1003.36 1003.64 1003.96 1004.32 1004.84 1005.20 1005.52 1005.88 1006.20 1006.52 1006.84 1007.16 1007.40 1007.56 1007.84 1008.12 1008.48 1008.80 1009.16 1009.56 1010.00 1010.28 1010.56 1010.84 1011.08 1011.24 1011.48 1011.84 1012.12 1012.44 1012.76 1012.96
995.04 995.00 994.96 994.88 994.76 994.80 994.80 995.04 995.32 995.80 996.20 996.52 996.68 996.84 997.20 997.48 997.68 997.96 998.28 998.56 998.84 999.08 999.20 999.68 1000.48 1001.00 1001.28 1001.52 1001.60 1002.08 1002.52 1002.96 1003.24 1003.52 1004.00 1004.12 1004.56 1004.96 1005.40 1005.72 1006.04 1006.44 1006.76 1007.04 1007.32 1007.60 1007.84 1008.16 1008.56 1008.80 1009.08 1009.48 1009.88 1010.24 1010.36 1010.56 1010.72 1011.12 1011.56 1011.84 1011.92 1012.04 1012.40
994.56 994.28 994.24 994.44 994.60 994.80 995.08 995.20 995.48 995.80 996.00 996.16 996.16 996.32 996.64 997.04 997.32 997.68 998.00 998.04 998.28 998.28 998.56 999.20 999.76 1000.28 1000.60 1000.76 1001.24 1001.72 1002.12 1002.36 1002.72 1003.16 1003.40 1003.76 1004.16 1004.40 1004.76 1005.24 1005.72 1006.12 1006.40 1006.72 1007.04 1007.24 1007.44 1007.88 1008.08 1008.32 1008.68 1009.04 1009.36 1009.64 1009.80 1010.04 1010.24 1010.72 1011.08 1011.28 1011.32 1011.48 1011.80
994.28 994.40 994.52 994.76 995.00 995.08 994.96 994.96 995.08 995.20 995.40 995.56 995.72 995.96 995.84 995.92 996.64 997.08 997.04 997.36 997.28 997.60 998.36 998.80 999.12 999.56 999.96 1000.24 1000.68 1001.12 1001.40 1001.80 1002.28 1002.60 1002.96 1003.24 1003.48 1003.92 1004.44 1004.96 1005.40 1005.76 1006.08 1006.36 1006.40 1006.80 1007.24 1007.44 1007.72 1008.04 1008.20 1008.52 1008.88 1009.12 1009.28 1009.56 1009.80 1010.28 1010.56 1010.68 1010.84 1011.16 1011.48
993.44 993.60 993.68 993.92 994.24 994.52 994.60 994.68 994.72 994.60 994.52 994.60 994.68 994.60 994.56 995.04 995.60 995.68 995.68 996.00 996.64 997.48 997.88 998.28 998.64 998.96 999.36 999.68 1000.04 1000.36 1000.72 1001.20 1001.68 1002.12 1002.36 1002.64 1003.16 1003.64 1004.12 1004.56 1004.88 1005.08 1005.36 1005.72 1006.12 1006.52 1006.84 1007.04 1007.32 1007.48 1007.76 1007.92 1008.24 1008.56 1008.80 1009.08 1009.44 1009.84 1010.12 1010.32 1010.64 1010.92 1011.24
993.32 993.28 993.28 993.32 993.56 993.68 993.92 994.00 994.16 994.24 994.20 994.00 993.84 993.96 994.44 994.92 994.80 994.96 995.56 996.04 996.72 996.84 997.24 997.60 998.00 998.48 998.80 999.24 999.40 999.76 1000.20 1000.68 1001.08 1001.48 1001.88 1002.32 1002.76 1003.24 1003.68 1004.00 1004.40 1004.84 1005.04 1005.36 1005.72 1006.08 1006.36 1006.56 1006.88 1007.00 1007.20 1007.48 1007.76 1008.20 1008.52 1008.60 1009.04 1009.52 1009.80 1010.08 1010.36 1010.60 1011.00
993.24 992.84 992.80 992.56 992.56 992.68 993.00 993.20 993.32 993.44 993.44 993.08 993.44 993.84 994.16 994.44 994.32 994.92 995.44 995.64 996.12 996.40 996.60 996.96 997.48 997.88 998.28 998.72 998.96 999.24 999.48 999.92 1000.40 1000.88 1001.40 1001.92 1002.40 1002.88 1003.28 1003.64 1004.00 1004.40 1004.60 1004.96 1005.24 1005.40 1005.68 1006.00 1006.20 1006.60 1006.88 1007.04 1007.44 1007.88 1008.24 1008.32 1008.76 1009.12 1009.48 1009.72 1010.04 1010.40 1010.88
993.20 992.68 992.24 991.92 992.16 992.72 992.44 992.24 992.44 992.44 992.48 992.80 993.08 993.48 993.80 993.64 993.96 994.52 995.08 995.72 995.96 996.20 996.40 996.68 997.16 997.40 997.68 998.00 998.24 998.52 998.80 999.24 999.80 1000.40 1000.92 1001.40 1002.00 1002.44 1002.80 1003.24 1003.60 1003.88 1004.08 1004.68 1004.92 1005.24 1005.48 1005.60 1005.76 1005.92 1006.36 1006.80 1007.12 1007.48 1007.84 1008.12 1008.36 1008.60 1008.88 1009.20 1009.52 1010.36 1010.80
992.88 992.56 992.20 992.24 992.04 991.60 991.40 991.84 992.32 992.48 992.80 993.04 993.16 993.04 992.92 993.08 993.64 994.32 995.00 995.36 995.56 996.04 996.40 996.56 996.64 996.60 996.92 997.28 997.48 997.76 998.12 998.60 999.20 999.88 1000.44 1000.96 1001.44 1001.80 1002.16 1002.48 1002.84 1003.24 1003.48 1004.08 1004.56 1004.84 1004.88 1005.08 1005.48 1005.72 1005.96 1006.36 1006.76 1006.92 1007.40 1007.60 1007.80 1008.00 1008.32 1008.72 1009.36 1009.80 1010.32
994.60 994.04 993.48 992.84 992.08 991.92 991.96 991.76 991.56 991.72 992.20 992.72 993.20 993.08 993.12 993.40 993.76 994.36 994.88 995.00 995.24 995.60 996.08 996.16 995.92 996.00 996.32 996.44 996.56 997.00 997.52 998.08 998.68 999.32 999.92 1000.40 1000.72 1001.04 1001.60 1001.96 1002.32 1002.64 1003.08 1003.44 1003.80 1004.20 1004.48 1004.92 1005.36 1005.72 1005.88 1005.96 1006.20 1006.40 1006.72 1007.08 1007.52 1007.88 1008.20 1008.80 1009.32 1009.56 1009.80
995.16 994.76 994.44 993.68 993.04 992.72 992.00 991.60 992.08 992.44 992.60 992.68 992.36 992.08 992.68 993.24 993.84 994.28 994.52 994.64 994.68 995.24 995.56 995.48 995.16 994.92 995.00 995.36 996.04 996.72 997.28 997.68 998.24 998.72 999.24 999.72 1000.12 1000.48 1000.88 1001.28 1001.96 1002.48 1002.84 1003.16 1003.48 1004.08 1004.48 1004.80 1005.16 1005.60 1005.84 1005.84 1006.04 1006.32 1006.56 1007.16 1007.72 1008.24 1008.56 1008.80 1009.12 1009.28 1009.48
995.68 995.36 995.00 994.60 994.28 993.08 992.56 992.60 992.28 992.28 992.32 992.12 991.76 991.72 992.12 992.76 993.52 993.88 993.96 994.20 994.76 994.92 994.48 994.08 994.00 994.24 994.60 995.12 995.72 996.12 996.52 996.92 997.44 998.04 998.44 998.84 999.44 999.96 1000.56 1001.04 1001.60 1002.12 1002.60 1003.16 1003.64 1004.08 1004.56 1004.84 1005.12 1005.44 1005.80 1005.96 1006.20 1006.52 1006.92 1007.20 1007.80 1008.36 1008.64 1008.96 1009.24 1009.44 1009.48
995.44 995.28 995.20 995.08 994.48 993.76 993.20 993.08 993.32 993.00 992.52 992.08 992.24 992.64 993.04 993.04 993.04 993.12 993.32 993.80 994.20 993.88 993.40 993.48 993.76 994.12 994.56 995.00 995.32 995.60 995.92 996.24 996.56 997.08 997.76 998.40 999.08 999.92 1000.48 1000.72 1001.08 1001.64 1002.28 1002.96 1003.56 1004.08 1004.52 1004.88 1005.24 1005.68 1006.12 1006.36 1006.52 1006.76 1007.12 1007.32 1007.64 1008.20 1008.84 1009.08 1009.32 1009.44 1009.36
996.00 995.80 995.72 995.44 995.04 994.56 993.96 993.28 993.04 992.92 993.04 992.52 991.88 991.72 992.16 993.08 994.20 994.12 993.68 993.56 992.96 992.44 992.36 992.68 993.32 993.84 994.24 994.68 995.04 995.28 995.48 995.72 996.12 996.64 997.24 998.00 998.56 999.40 1000.28 1000.68 1001.20 1001.80 1002.32 1002.96 1003.56 1004.08 1004.72 1005.16 1005.52 1005.96 1006.44 1006.72 1006.96 1007.12 1007.32 1007.52 1007.84 1008.08 1008.52 1009.04 1009.32 1009.56 1009.64
995.84 995.68 995.52 995.36 995.28 995.04 994.52 994.00 993.40 992.96 992.64 992.56 992.64 992.16 991.64 992.16 992.92 993.32 994.08 994.32 993.24 992.48 992.12 992.32 992.64 993.12 993.80 994.36 994.68 995.08 995.40 995.68 996.00 996.32 996.84 997.64 998.48 999.24 1000.08 1000.76 1001.24 1001.80 1002.32 1002.84 1003.44 1004.24 1004.92 1005.40 1005.64 1006.04 1006.48 1006.88 1007.20 1007.32 1007.40 1007.56 1007.84 1008.20 1008.20 1008.76 1009.32 1009.64 1009.76
996.28 996.16 995.92 995.68 995.36 995.00 994.80 994.68 994.48 993.92 993.16 993.12 992.72 992.52 992.36 991.88 992.08 992.60 992.76 992.28 992.28 993.04 993.48 993.04 992.64 993.00 993.56 994.00 994.44 994.88 995.28 995.68 996.12 996.48 996.84 997.36 998.04 999.20 1000.04 1000.80 1001.20 1002.08 1002.56 1002.92 1003.64 1004.20 1004.88 1005.40 1005.56 1005.96 1006.44 1006.84 1007.16 1007.44 1007.60 1007.64 1007.76 1008.04 1008.40 1008.72 1009.16 1009.40 1009.48
996.56 996.32 996.20 995.92 995.64 995.32 995.24 995.12 995.04 995.08 994.84 994.56 994.48 994.12 993.32 992.48 992.04 992.08 991.60 991.08 991.32 991.92 992.72 993.56 993.92 993.60 993.56 993.80 994.16 994.64 995.00 995.68 996.20 996.52 996.88 997.36 997.84 998.52 999.28 1000.16 1001.00 1001.76 1002.48 1002.92 1003.52 1004.08 1004.68 1005.24 1005.56 1005.96 1006.24 1006.64 1007.00 1007.28 1007.44 1007.52 1007.48 1007.84 1008.32 1008.76 1009.00 1009.20 1009.28
996.92 996.72 996.64 996.48 996.20 995.84 995.68 995.52 995.56 995.52 995.28 995.16 994.88 994.48 994.28 994.04 993.16 992.80 992.72 992.88 992.80 992.56 992.88 993.88 994.64 994.68 994.12 993.96 994.12 994.32 994.68 995.28 995.96 996.60 997.08 997.48 998.04 998.68 999.40 1000.00 1000.72 1001.40 1002.12 1002.68 1003.36 1004.08 1004.56 1005.00 1005.36 1005.68 1006.04 1006.48 1006.88 1007.12 1007.28 1007.36 1007.48 1007.92 1008.44 1008.88 1009.36 1009.48 1009.76
997.20 997.00 996.72 996.60 996.40 996.08 995.88 995.80 995.84 995.68 995.40 995.24 994.68 994.40 994.36 994.24 994.16 993.60 993.12 992.84 992.64 992.96 993.36 994.28 995.72 996.24 995.64 994.96 994.24 994.20 994.44 995.04 995.48 996.08 996.96 997.52 997.92 998.80 999.64 1000.20 1000.40 1001.08 1001.80 1002.32 1002.96 1003.68 1004.36 1004.64 1005.00 1005.32 1005.76 1006.28 1006.60 1006.88 1007.04 1007.28 1007.68 1008.04 1008.40 1008.84 1009.20 1009.52 1009.84
997.20 997.20 997.04 996.84 996.60 996.28 996.16 995.96 995.80 995.64 995.48 995.16 994.80 994.52 994.36 994.40 994.28 993.96 993.36 993.00 992.72 992.56 993.16 994.20 995.44 996.64 996.64 996.08 995.44 995.24 995.04 995.28 995.68 996.00 996.60 997.64 998.56 999.12 999.72 1000.04 1000.44 1001.08 1001.68 1001.88 1002.08 1002.64 1003.40 1004.16 1004.64 1004.96 1005.24 1005.60 1006.20 1006.68 1007.24 1007.48 1007.72 1007.60 1007.60 1008.00 1008.48 1008.96 1009.56
997.32 997.16 997.04 996.84 996.64 996.40 996.00 995.80 995.80 995.64 995.40 995.28 994.96 994.60 994.44 994.32 994.16 994.04 993.80 993.40 992.92 992.80 993.36 993.64 994.20 995.56 997.04 997.52 996.92 996.64 996.72 996.52 996.48 996.76 997.40 997.92 998.60 999.48 1000.76 1001.64 1001.56 1001.32 1001.48 1002.36 1002.84 1003.00 1003.12 1003.52 1004.32 1004.64 1005.04 1005.60 1005.84 1005.92 1006.52 1006.92 1006.72 1006.88 1007.44 1007.88 1008.32 1008.64 1008.72
997.68 997.44 997.20 996.88 996.84 996.72 996.64 996.16 995.64 995.28 995.24 995.20 995.00 995.00 995.04 994.92 994.60 994.20 993.88 993.60 993.44 993.00 993.16 993.60 994.16 994.80 996.20 997.88 998.68 997.60 997.64 997.76 997.88 998.40 998.64 998.72 998.92 999.68 1000.68 1001.68 1002.44 1002.96 1003.12 1003.04 1003.24 1003.48 1003.72 1004.00 1004.32 1004.76 1005.04 1005.40 1006.12 1006.48 1006.52 1006.40 1006.60 1006.96 1007.44 1007.92 1008.32 1008.64 1008.88
997.72 997.68 997.52 997.24 997.12 997.12 997.00 996.84 996.52 996.12 995.76 995.44 995.12 995.20 995.44 995.60 995.32 995.00 994.64 994.16 993.80 993.56 993.28 993.32 993.72 994.20 995.12 996.80 998.28 998.44 998.60 999.20 999.52 999.60 999.36 999.32 999.24 999.76 1000.48 1001.28 1002.36 1003.32 1004.00 1004.08 1003.72 1003.76 1003.96 1004.12 1004.32 1004.56 1004.88 1005.20 1005.68 1006.36 1006.80 1006.72 1006.72 1007.00 1007.44 1007.84 1008.24 1008.48 1008.68
Wind_Speed
19 19 18 18 18 19 19 20 21 20 20 19 19 20 19 18 18 18 18 19 21 20 19 19 18 17 18 16 15 14 14 13 12 12 11 11 10 10 10 9 10 10 10 10 10 11 10 10 11 11 10 10 9 9 9 8 8 8 8 8 7 7 7
17 18 19 18 19 19 21 21 21 20 19 19 18 20 19 20 19 19 19 20 21 21 20 19 18 17 18 16 14 15 15 15 14 12 11 10 9 9 10 10 11 11 10 10 10 9 10 11 11 11 11 11 10 10 9 9 9 9 8 8 8 7 7
18 19 19 19 19 18 20 19 20 20 20 18 18 18 20 21 21 22 19 18 20 19 18 19 19 18 17 16 15 15 15 14 14 14 13 12 12 12 11 10 10 10 10 10 9 10 10 11 11 11 11 11 11 10 10 9 8 9 9 9 8 8 7
18 18 19 20 20 20 21 21 22 20 19 20 21 22 22 22 20 19 19 20 20 19 20 18 18 18 16 17 16 15 16 15 15 14 14 12 12 11 10 10 9 9 9 11 10 10 10 11 12 12 12 11 11 10 10 11 9 9 9 9 8 8 8
20 19 17 17 18 18 19 18 19 19 20 21 22 22 22 21 19 17 17 18 20 22 21 21 18 17 15 16 14 13 15 16 15 13 13 12 11 11 12 12 11 11 11 10 10 10 11 11 12 12 12 11 11 10 11 10 10 9 8 9 9 8 8
18 17 16 17 18 18 19 20 21 21 20 20 20 19 18 19 18 20 19 19 19 18 18 18 18 17 17 16 14 14 14 14 14 13 13 12 12 12 13 13 12 12 12 13 11 11 12 12 13 13 13 11 11 11 11 11 10 10 9 9 9 9 8
18 18 16 17 18 18 19 19 19 19 19 20 19 18 17 17 20 20 18 18 19 20 19 19 19 18 16 15 15 16 16 15 14 15 13 13 13 13 13 12 12 12 12 10 12 12 13 13 13 13 13 12 11 12 12 12 11 10 9 9 9 9 9
20 18 19 19 19 19 19 17 18 18 17 15 15 15 18 18 17 17 19 19 19 18 19 20 19 18 17 15 15 16 16 16 14 14 13 14 13 14 13 13 13 12 11 14 13 13 14 14 13 12 13 12 12 12 12 12 12 11 10 10 10 9 8
20 20 19 19 20 19 18 18 18 18 19 18 19 19 19 18 18 19 20 19 18 20 21 20 20 17 16 16 16 17 16 15 14 14 15 15 14 15 14 13 13 12 14 14 13 13 13 13 13 13 13 13 12 12 12 13 12 11 11 11 11 11 10
18 17 19 20 20 19 18 17 16 15 16 16 15 15 17 18 18 18 17 18 18 21 21 19 18 17 17 17 17 17 16 16 15 16 16 16 15 16 15 14 13 13 14 14 12 13 12 13 13 13 13 14 13 13 13 13 12 11 11 12 12 11 11
18 19 19 19 19 19 15 10 11 13 16 17 16 16 17 18 18 17 18 17 19 19 19 18 17 17 17 17 18 18 17 17 16 17 17 17 15 17 16 15 14 13 14 13 13 14 12 12 12 13 13 14 14 14 13 13 13 12 12 11 11 11 10
17 17 19 20 18 14 13 14 15 14 15 15 16 17 17 17 18 18 18 19 18 15 15 17 16 17 17 17 18 17 18 18 17 18 19 18 17 17 16 15 14 14 13 14 14 13 13 13 12 13 14 14 14 14 14 13 12 13 12 12 10 9 9
17 18 18 17 15 13 11 11 16 17 17 17 17 17 17 18 18 18 17 18 17 16 16 16 16 16 17 17 18 17 18 18 18 18 18 18 17 15 15 15 15 15 15 14 14 14 13 14 14 13 13 14 13 13 13 12 12 11 10 10 9 9 9
9 12 12 12 12 12 14 14 15 16 17 17 17 17 16 16 17 17 17 18 17 16 16 14 16 17 17 17 17 18 19 18 18 17 17 16 16 15 15 15 15 15 14 13 14 14 15 15 15 13 12 12 13 12 11 11 10 10 10 9 10 9 9
17 15 12 12 13 14 14 15 15 17 17 17 17 16 16 15 14 14 15 15 16 16 18 17 16 17 17 17 18 19 18 16 16 15 16 16 16 16 16 16 15 14 13 13 13 13 14 13 13 13 13 12 12 11 10 11 11 10 10 10 10 10 10
19 17 17 18 18 18 17 18 17 16 15 14 14 15 15 15 16 17 17 17 18 18 18 16 17 18 18 19 19 17 16 16 15 15 16 16 17 17 16 15 15 14 14 14 14 13 12 12 12 13 13 13 12 11 10 10 9 12 17 15 12 12 10
8 9 11 13 15 17 16 16 15 14 14 15 15 17 16 15 15 15 16 16 17 18 17 17 18 18 19 20 18 16 16 16 16 15 17 17 16 16 16 16 15 14 14 14 13 14 13 12 13 13 12 13 12 13 11 10 10 16 17 18 20 15 12
11 15 16 17 15 12 11 12 12 13 15 15 16 16 15 15 14 15 16 17 18 18 17 17 18 19 19 18 16 16 17 17 16 16 17 16 17 17 16 15 14 14 14 13 14 13 12 13 14 13 12 11 12 13 12 11 13 18 20 21 23 19 13
10 8 6 6 6 7 10 13 13 14 14 14 15 16 17 18 16 17 18 18 19 16 16 18 19 19 19 18 17 18 18 16 16 17 16 17 17 15 14 15 15 14 14 15 14 12 13 14 13 12 12 13 14 14 13 11 15 20 22 23 23 21 15
12 12 11 10 9 10 10 10 11 14 17 17 18 20 20 18 19 19 20 20 17 16 17 18 18 18 18 17 18 18 17 17 17 17 17 16 15 14 15 15 16 15 14 12 12 12 13 13 14 13 13 14 14 13 12 12 15 21 22 22 21 20 17
11 11 12 13 15 15 15 15 15 16 17 17 18 16 13 14 17 17 16 15 16 18 19 19 19 18 17 17 18 18 17 17 17 17 16 15 15 15 15 15 14 14 13 12 13 13 14 14 14 13 13 13 12 11 11 11 17 21 22 21 21 21 18
6 9 12 12 17 18 17 16 15 17 17 15 13 13 14 16 17 16 16 15 17 18 18 19 19 18 17 17 18 18 18 18 18 17 15 15 15 15 15 15 15 15 13 11 11 11 11 11 11 13 13 12 12 12 11 9 18 21 22 22 20 20 13
3 4 4 6 7 7 8 11 15 17 16 14 15 15 16 17 16 16 15 15 16 17 18 18 18 18 18 19 18 19 18 18 18 17 16 16 16 16 16 15 14 13 11 12 12 12 12 13 13 12 12 12 12 12 10 9 17 22 23 22 22 15 9
7 4 3 6 6 7 12 12 9 7 6 8 11 14 15 16 15 14 14 16 16 16 16 17 19 19 19 19 19 19 18 17 17 16 16 16 17 17 15 14 12 13 12 13 13 13 13 11 10 10 11 12 12 12 11 10 16 23 23 22 20 16 12
7 8 8 7 6 7 7 8 13 16 13 10 10 10 8 8 12 13 14 15 16 16 17 18 19 18 19 19 19 18 17 16 16 16 16 17 17 16 16 15 14 11 11 12 12 11 9 9 9 8 8 10 11 14 14 10 13 21 20 19 18 16 10
10 12 11 9 9 6 7 6 5 5 6 9 13 12 10 10 10 13 15 16 16 17 17 18 19 19 19 19 16 14 14 14 16 16 16 17 16 15 15 12 11 11 12 10 10 9 8 9 9 10 8 8 9 10 10 8 6 11 16 17 18 19 11
5 6 9 10 10 10 5 4 6 10 11 11 12 12 12 11 12 15 16 15 14 17 19 20 19 18 16 14 14 16 17 16 17 18 17 16 15 14 12 11 12 12 12 10 8 9 9 9 8 8 7 6 4 5 5 6 7 9 15 15 17 17 13
10 8 6 5 8 9 7 7 4 3 5 6 2 4 4 5 14 17 16 15 16 18 17 16 15 13 12 13 16 17 17 17 17 17 15 14 13 13 13 12 12 12 12 10 10 11 10 8 7 7 6 5 5 5 5 6 9 9 10 14 16 17 15
10 9 10 10 10 10 6 5 6 6 4 4 2 6 5 2 5 8 10 15 19 18 18 17 14 13 13 14 15 16 17 17 18 16 13 14 15 15 13 11 12 11 11 11 10 11 10 8 7 8 7 6 5 5 5 5 6 12 11 12 15 16 14
8 9 9 8 7 8 7 3 3 3 5 5 6 1 7 10 11 9 5 10 12 12 12 13 14 14 14 14 15 15 14 15 16 15 14 15 15 14 14 12 11 11 10 10 11 9 9 7 8 8 8 7 6 5 5 5 5 8 12 12 14 13 15
10 10 10 10 11 10 7 7 6 4 3 5 3 1 2 5 11 9 12 11 6 4 7 10 13 14 14 14 14 14 13 13 13 14 15 15 16 15 13 12 12 11 8 10 9 9 9 7 7 8 7 7 7 6 5 6 6 6 8 13 14 15 16
9 9 8 8 10 10 8 7 6 8 9 10 12 12 7 3 3 11 11 9 10 10 9 7 6 10 13 13 13 14 15 15 14 14 15 15 14 15 14 15 12 12 10 10 10 9 10 9 8 8 8 7 7 7 7 6 5 5 6 7 10 11 16
9 9 9 9 7 7 7 8 9 10 9 9 10 8 8 8 6 6 8 10 10 7 8 5 2 6 9 13 13 15 16 18 14 13 14 14 12 12 11 11 11 12 11 10 10 9 9 10 9 9 9 9 8 7 7 7 6 6 5 5 6 6 7
9 9 9 7 7 5 6 8 9 10 10 10 8 8 7 6 7 6 5 7 10 10 11 12 8 6 8 10 13 14 16 16 21 19 13 13 14 13 11 10 12 13 12 12 12 12 10 10 10 10 10 9 8 8 7 6 6 6 7 7 7 6 6
8 8 7 8 8 7 7 5 7 8 8 8 6 6 7 7 7 7 4 6 8 12 12 11 13 13 8 3 6 8 11 13 14 14 15 13 10 9 8 10 12 11 8 5 9 11 12 10 9 8 8 9 9 8 7 6 7 8 8 10 12 11 8
9 8 8 7 5 3 4 6 6 6 7 6 5 6 6 4 3 3 4 2 8 12 13 13 13 11 9 11 7 8 6 8 10 11 11 14 15 14 12 17 16 9 9 7 6 6 7 10 8 7 7 8 6 7 9 10 10 10 14 13 14 14 15
11 10 9 8 7 8 6 3 3 4 3 4 6 7 7 6 3 2 3 3 5 12 16 15 13 12 10 8 8 6 8 7 8 7 8 10 12 13 13 10 12 19 17 12 9 7 7 8 12 13 11 9 6 2 3 4 10 14 14 14 14 14 13
11 11 10 10 8 7 6 5 6 4 3 2 6 7 6 6 6 3 4 4 5 7 11 13 14 13 13 12 9 6 8 5 6 7 9 8 10 12 12 12 11 10 14 14 12 13 13 9 12 16 15 14 12 8 1 4 12 15 15 15 15 15 15
Wind_Direction
188 189 191 190 191 191 192 193 194 195 193 191 191 190 186 185 186 184 186 187 189 187 187 186 187 186 188 190 192 193 194 195 196 199 199 199 195 189 187 184 184 188 185 183 186 187 188 183 185 187 187 189 184 188 187 185 187 188 184 182 177 179 186
190 191 192 192 191 193 194 194 195 195 194 193 191 189 187 187 186 186 188 188 188 187 185 187 188 190 189 189 191 193 194 196 196 199 200 201 197 195 193 187 185 188 188 186 183 187 182 186 184 187 188 191 192 190 187 187 189 187 182 182 179 184 185
195 192 192 191 192 193 195 196 196 195 194 191 190 188 190 190 188 188 185 186 188 188 186 187 189 189 190 190 190 194 195 195 196 197 198 199 197 195 196 191 190 188 189 185 182 183 185 183 188 189 189 190 193 192 192 187 191 188 183 181 184 184 187
198 195 193 192 192 192 194 195 195 196 194 191 189 191 192 191 189 186 184 184 184 186 187 190 188 189 190 190 192 193 196 198 197 198 199 198 195 194 193 193 190 186 186 189 184 182 184 183 187 191 190 191 194 195 192 193 190 188 184 180 188 189 190
202 196 191 192 194 195 198 196 196 194 194 194 193 192 190 188 183 184 186 186 185 186 187 186 188 190 191 190 191 193 195 197 198 199 199 198 195 192 195 194 190 189 188 184 185 184 183 184 188 190 193 192 194 194 195 195 192 188 183 183 186 191 193
199 193 190 192 194 198 197 198 197 195 194 192 191 191 190 184 184 186 186 184 188 189 187 186 187 187 191 191 190 191 193 198 198 198 198 196 193 196 199 197 191 188 186 189 185 188 186 186 189 191 192 194 194 194 195 195 195 188 186 184 189 188 191
197 194 190 191 194 196 199 199 197 196 194 192 189 186 183 183 187 188 183 186 185 185 186 188 188 188 190 188 191 189 192 195 196 198 197 198 198 199 200 197 194 192 190 183 192 188 190 190 192 192 193 192 195 195 194 194 194 191 186 188 190 191 193
196 195 195 192 193 196 199 196 195 195 193 188 180 180 185 187 186 184 186 188 186 185 188 187 188 189 187 187 189 191 192 193 194 195 196 199 200 203 201 198 196 192 186 193 194 190 192 192 192 193 193 194 196 196 196 194 194 190 188 190 191 193 191
197 194 192 195 196 200 197 192 193 190 186 183 184 185 185 182 184 188 190 186 186 187 190 188 188 186 185 186 188 192 191 190 192 193 197 199 202 204 202 201 195 190 192 196 195 195 194 192 192 192 194 196 197 196 197 195 194 193 191 194 194 195 196
196 195 196 196 198 200 199 196 190 182 182 182 182 180 181 185 189 190 189 188 187 192 188 187 186 185 185 186 189 189 189 190 191 192 196 201 203 204 204 200 197 193 196 196 194 195 199 194 190 191 195 198 197 198 198 197 197 195 196 196 196 198 201
194 194 195 198 199 201 196 179 171 181 184 184 183 182 182 185 187 187 190 190 191 194 187 187 184 185 185 186 187 188 190 191 189 192 197 202 203 204 202 201 198 196 198 195 197 197 195 197 193 193 195 199 198 198 200 200 197 196 199 201 199 200 200
191 190 197 198 199 192 182 178 181 182 184 187 185 181 183 186 188 189 189 192 191 187 186 189 187 186 184 187 188 189 191 191 190 194 197 201 202 203 202 202 200 199 200 197 198 195 196 195 196 197 198 199 199 199 201 199 199 199 200 199 197 197 199
191 195 197 195 192 189 183 179 184 184 184 185 185 185 185 187 188 189 188 188 187 186 186 188 187 186 187 188 190 190 193 192 193 194 197 199 201 200 201 202 203 202 201 198 199 195 196 199 200 200 198 199 198 200 200 199 198 200 199 197 195 197 197
216 207 200 191 186 181 181 186 186 184 186 186 187 187 188 189 188 187 186 187 187 183 183 187 188 188 189 189 192 194 194 194 193 194 196 198 199 200 201 203 204 205 203 197 199 200 199 199 200 200 198 198 199 200 197 196 196 197 196 193 195 196 201
199 201 196 189 191 186 187 188 189 190 187 187 185 185 185 185 189 187 186 186 185 184 187 185 187 190 190 191 195 197 194 193 194 195 195 196 197 199 202 203 205 204 201 200 202 203 203 201 198 197 200 199 198 195 194 195 196 193 190 188 195 200 203
196 193 189 192 193 192 193 193 191 190 184 182 181 184 184 186 187 187 187 189 187 188 188 182 189 190 191 195 198 195 193 193 193 194 194 195 197 199 201 203 204 203 202 202 203 203 201 200 199 199 199 197 196 195 195 198 197 192 186 187 194 200 204
195 198 204 206 199 196 194 191 187 184 181 183 184 185 186 187 188 188 190 189 188 190 187 185 188 192 194 199 197 192 192 192 195 193 195 198 197 198 200 202 202 202 203 203 201 201 199 198 199 201 199 196 194 197 200 199 196 181 180 189 200 201 202
193 194 196 197 200 198 194 189 184 181 184 187 187 187 186 187 186 185 191 190 193 193 187 187 190 193 196 199 192 192 194 196 193 194 197 196 199 199 200 200 201 202 202 202 201 201 198 198 201 200 196 196 197 200 201 200 186 175 181 193 204 203 201
186 185 184 203 206 197 190 187 185 186 186 186 189 190 193 188 184 190 193 192 196 189 185 190 193 194 197 195 191 193 195 195 193 196 195 198 198 198 197 199 200 201 201 203 202 197 198 202 198 198 197 196 199 203 200 201 181 178 186 198 203 202 199
176 183 184 182 187 191 196 196 194 191 189 189 193 194 194 188 189 196 195 194 189 184 190 192 195 195 197 194 194 194 194 193 194 196 197 196 195 195 197 198 201 201 201 201 199 198 201 201 200 198 197 198 200 201 197 201 178 182 190 200 201 199 199
186 178 181 185 189 194 194 195 200 202 200 200 198 198 191 193 197 198 195 190 186 190 191 193 194 196 197 195 196 194 193 193 194 197 195 192 192 194 197 199 199 200 199 197 197 198 199 200 200 200 199 198 198 198 197 200 175 183 191 198 200 200 196
208 191 196 198 194 193 197 205 203 201 202 202 196 195 194 198 199 194 194 190 192 192 193 193 194 197 195 197 196 195 194 193 194 194 190 189 190 193 197 197 198 199 195 195 198 200 200 201 200 198 198 197 193 196 199 187 171 184 191 197 199 197 197
290 269 225 203 189 224 228 211 204 204 203 199 196 195 199 202 197 194 190 189 195 196 196 194 196 197 196 197 196 196 195 193 192 190 188 187 188 193 194 195 197 196 188 192 194 195 197 199 199 197 193 192 193 193 193 181 180 184 192 195 195 186 191
353 334 289 280 281 226 199 201 217 232 230 216 209 205 201 197 192 191 190 193 194 195 199 197 199 199 197 198 197 196 193 192 189 188 186 185 190 192 193 193 192 192 183 188 190 195 197 193 190 188 190 190 192 190 188 188 185 188 191 192 185 179 185
6 351 349 318 259 249 252 227 201 200 197 194 207 215 206 196 189 188 194 195 194 196 199 202 203 199 198 200 198 194 190 188 187 186 185 188 191 189 189 189 189 182 179 188 188 190 181 173 176 177 183 189 188 187 188 187 185 191 190 183 175 180 181
6 357 3 12 359 309 255 237 253 260 219 208 215 206 184 180 186 195 198 201 196 196 201 205 206 202 201 199 192 188 187 186 186 186 186 188 187 187 187 180 172 173 178 178 175 166 165 164 165 168 177 177 183 187 187 168 162 181 182 178 178 182 176
24 360 0 11 358 350 355 290 227 216 224 230 226 209 184 181 189 196 203 201 200 203 205 205 206 204 202 194 187 186 185 185 185 185 186 184 183 179 172 170 171 168 168 161 153 151 153 158 159 158 158 158 150 146 145 153 156 173 181 179 178 183 174
13 19 23 359 8 19 6 17 13 313 278 250 286 1 321 232 198 201 203 199 201 206 210 211 208 204 196 188 189 188 186 185 183 181 179 176 169 167 170 171 166 165 159 151 153 153 151 144 140 132 119 101 108 125 122 128 152 157 178 180 182 185 180
15 13 358 0 3 1 8 21 2 8 5 337 217 154 143 151 268 264 234 212 205 207 206 201 196 195 193 190 189 189 186 184 178 174 171 169 166 162 162 160 155 149 147 148 148 144 138 136 129 124 117 105 99 103 112 122 130 155 162 182 184 187 188
15 9 5 5 359 345 349 3 7 17 358 359 351 344 149 163 183 197 228 267 257 244 215 192 188 186 185 186 187 186 183 179 174 169 162 159 157 155 151 151 146 143 147 145 141 135 130 129 129 128 133 134 122 109 119 134 130 164 167 171 187 188 191
16 11 4 357 348 346 342 351 344 342 16 349 340 325 279 181 174 183 207 216 197 219 232 213 189 179 180 180 180 176 174 168 166 163 157 155 152 148 146 142 139 134 136 132 129 131 132 136 137 138 139 138 143 145 152 157 150 149 172 176 178 185 192
18 16 11 4 1 355 356 355 9 6 358 359 359 344 340 325 241 202 211 191 179 179 196 208 210 187 176 174 169 167 161 160 158 154 151 148 149 148 148 145 142 137 139 132 133 136 138 144 142 144 147 150 157 163 166 167 154 148 160 176 182 185 192
8 7 5 11 358 358 12 24 28 25 21 15 356 355 349 339 4 44 53 47 27 46 62 44 238 206 183 169 165 162 160 155 153 147 144 141 136 135 136 135 134 135 135 136 138 140 145 148 154 156 158 163 163 160 161 165 156 155 162 164 176 186 175
7 0 359 1 0 10 35 39 42 44 44 30 17 18 7 358 346 358 37 54 73 69 65 58 19 265 211 181 171 164 159 152 147 143 139 138 135 132 131 133 139 140 143 150 150 151 156 159 167 167 165 162 160 158 156 153 152 161 168 176 173 164 157
11 4 355 354 352 9 38 38 45 48 49 43 31 35 38 18 352 341 12 82 97 103 96 82 56 20 341 249 176 145 139 139 141 138 134 122 102 82 92 138 145 132 117 103 141 157 162 168 163 162 163 157 155 150 153 160 184 198 180 174 172 164 158
13 12 5 351 341 339 58 64 61 58 58 44 30 58 61 52 26 358 1 57 116 108 99 101 94 81 44 359 17 55 52 97 110 102 106 113 111 108 82 47 43 55 126 138 47 62 135 144 155 156 148 143 151 152 163 183 200 165 157 164 169 170 171
29 20 9 5 7 359 344 0 85 90 71 64 54 39 25 11 7 56 80 76 115 123 121 117 110 103 97 71 349 66 83 65 70 92 117 121 120 109 107 93 51 45 46 58 70 77 90 122 125 131 139 138 143 65 12 156 138 145 148 148 157 160 154
41 36 26 20 21 17 13 0 350 356 8 55 79 62 27 3 352 16 60 63 88 117 119 119 115 113 109 104 112 80 83 93 123 137 128 116 112 113 118 109 106 66 40 48 74 77 78 92 141 150 148 156 157 147 47 139 147 146 149 154 156 158 154